Regional Weather Roundup
Issued by NWS

Home | Current Version | Previous Version | Graphics & Text | Print | Product List | Glossary Off
Versions: 1 2 3 4 5 6 7 8 9 10 11 12 13 14 15 16 17 18 19 20 21 22 23 24 25 26 27 28 29 30 31 32 33 34 35 36 37 38 39 40 41 42 43 44 45 46 47 48 49 50

000
ASUS43 KLSX 300307
RWRMO

WEATHER SUMMARY FOR MISSOURI
NATIONAL WEATHER SERVICE SPRINGFIELD MO
1000 PM CDT FRI JUL 29 2016

NOTE: "FAIR" INDICATES FEW OR NO CLOUDS BELOW 12,000 FEET WITH NO
       SIGNIFICANT WEATHER AND/OR OBSTRUCTIONS TO VISIBILITY.
       CURRENT SKY AND/OR WEATHER CONDITIONS ARE NOT AVAILABLE FOR
       CHILLICOTHE AND FARMINGTON.

MOZ001>031-035>038-043-044-053-054-300400-
...NORTHERN AND WESTERN MISSOURI...

CITY           SKY/WX    TMP DP  RH WIND       PRES   REMARKS
KANSAS CTY INT CLEAR     71  61  70 N7        30.00R
KANSAS C DTWN  CLEAR     76  63  64 N5        29.98R
LEE`S SUMMIT   CLEAR     75  63  66 N6        29.99R
ST JOSEPH      CLEAR     68  62  81 CALM      30.00R
CHILLICOTHE      N/A     73  65  75 N3        30.00R
KIRKSVILLE     CLEAR     69  63  81 N8        29.99R

$$
MOZ066>068-077>081-088>096-101>105-300400-
...SOUTHWEST MISSOURI...

CITY           SKY/WX    TMP DP  RH WIND       PRES   REMARKS
SPRINGFIELD    CLEAR     74  69  85 E3        29.99R
JOPLIN         CLEAR     75  70  84 CALM      29.98R
BRANSON        CLOUDY    73  72  94 CALM      30.01R

$$
MOZ032>034-039>042-045>050-055>058-069>072-300400-
...CENTRAL MISSOURI...

CITY           SKY/WX    TMP DP  RH WIND       PRES   REMARKS
COLUMBIA       CLEAR     73  65  75 NE5       29.97R
JEFFERSON CITY CLEAR     74  68  81 NW3       29.95R
ROLLA          CLEAR     72  69  90 CALM      29.96R
SEDALIA        CLEAR     75  67  76 CALM      29.99R
WHITEMAN AFB   PTCLDY    72  69  89 NE2       29.97R
OSAGE BEACH    MOCLDY    72  71  97 CALM      29.98R

$$
MOZ051-052-059>065-300400-
...EAST CENTRAL MISSOURI...

CITY           SKY/WX    TMP DP  RH WIND       PRES   REMARKS
ST LOUIS INTL  PTCLDY    78  67  68 N3        29.94R
SPIRIT OF STL  CLEAR     73  69  87 CALM      29.93R
ST CHARLES     CLEAR     75  69  81 N6        29.93R

$$
MOZ072>076-082>087-097>100-106>115-300400-
...SOUTH CENTRAL AND SOUTHEAST MISSOURI...

CITY           SKY/WX    TMP DP  RH WIND       PRES   REMARKS
CAPE GIRARDEAU CLOUDY    71  70  96 SW5       29.94R
FARMINGTON     PTCLDY    74  72  93 S3        29.97R
POPLAR BLUFF   PTCLDY    72  70  93 CALM      29.95R
WEST PLAINS    CLOUDY    71  67  87 CALM      30.01R

$$



USA.gov is the U.S. government's official web portal to all federal, state and local government web resources and services.